Weather Roundup
Issued by NWS Chicago, IL

Home | Current Version | Previous Version | Graphics & Text | Print | Product List | Glossary Off
Versions: 1 2 3 4 5 6 7 8 9 10 11 12 13 14 15 16 17 18 19 20 21 22 23 24 25 26 27 28 29 30 31 32 33 34 35 36 37 38 39 40 41 42 43 44 45 46 47 48 49 50

000
NZUS59 KLOT 241909
HRRLOT

CHICAGO AREA WEATHER ROUNDUP
NATIONAL WEATHER SERVICE CHICAGO/ROMEOVILLE IL
200 PM CDT SUN SEP 24 2017

NOTE: "FAIR" INDICATES FEW OR NO CLOUDS BELOW 12,000 FEET WITH NO
SIGNIFICANT WEATHER AND/OR OBSTRUCTIONS TO VISIBILITY.

* THESE STATIONS ARE NOT UNDER NWS QUALITY CONTROL. THEY ALSO MAY NOT
  REPORT WEATHER SUCH AS PRECIPITATION OR FOG.

ILZ005-006-012>014-019>023-242000-
NORTHEAST ILLINOIS

CITY           SKY/WX    TMP DP  RH WIND       PRES   REMARKS
OHARE          MOSUNNY   91  60  35 S13       30.04F HX  90
MIDWAY         MOSUNNY   91  60  35 S7        30.04F HX  90
AURORA         SUNNY     89  64  43 SE10      30.05F HX  90
LANSING*       SUNNY     90  65  43 S6        30.05F HX  91
JOLIET*        SUNNY     90  64  41 S6        30.05F HX  91
WAUKEGAN       SUNNY     86  65  49 SE9       30.05F HX  88
DUPAGE AIRPORT MOSUNNY   90  63  40 SW12G18   30.04F HX  91
WHEELING       MOSUNNY   90  60  36 S12G18    30.05F HX  89
MORRIS*        MOSUNNY   90  61  37 S9        30.03F HX  90
LEWIS AIRPORT* MOSUNNY   89  62  39 SW5       30.05F HX  89
NORTHERLY ISL    N/A     80  67  64 NE7         N/A  HX  82
$$

WIZ051-052-058>065-066-070>072-242000-
SOUTHEAST WISCONSIN

CITY           SKY/WX    TMP DP  RH WIND       PRES   REMARKS
MILWAUKEE      MOSUNNY   87  65  47 SE17      30.04F HX  89
KENOSHA*       MOSUNNY   90  62  39 VRB6      30.05F HX  90
RACINE*        SUNNY     87  65  47 SE13      30.07F HX  89
WAUKESHA       MOSUNNY   88  59  37 SW10G17   30.06F HX  87
WEST BEND        N/A     88  55  33 S12       30.05S HX  86
$$

INZ001>003-010>013-019-020-242000-
NORTHWEST INDIANA

CITY           SKY/WX    TMP DP  RH WIND       PRES   REMARKS
GARY*          MOSUNNY   91  50  24 SE7       30.05F HX  88
MICHIGAN CITY* NOT AVBL
RENSSELAER*    NOT AVBL
VALPARAISO     SUNNY     92  57  30 S10       30.06F HX  90
$$

LMZ740>746-242000-
SOUTHERN LAKE MICHIGAN

STATION/POSITION TIME  SKY/WX   TEMP WIND        PRES    VSBY
                                AIR  DIR/SP/G
                 (UTC)          (F)  (DEG/KT/KT) (MB)    (MI)
HARRISON CRIB    1840            81  100/ 11/ 11   N/A
BURNHAM HARBOR   1900            79                N/A
CALUMET HARBOR   1848            80   50/  8/ 10 1017.1F
BURNS HARBOR     1840            87  220/  6/ 10 1017.9F
MICHIGAN CITY    1840            87  150/  8/ 10   N/A
$$

ABBREVIATIONS USED IN REMARKS
   TC - TEMPERATURE IN CELSIUS
  WCI - WIND CHILL INDEX
   HX - HEAT INDEX
  VSB - VISIBILITY
$$



USA.gov is the U.S. government's official web portal to all federal, state and local government web resources and services.